Vertical_Velocity
3 1 0 6 7 -18 1 3 1 3 4 -2 -3 -3 -3 -6 -3 -1 -0 -1 0 2 -6 2 -2 3 2 4 -1 -0 -3 3 -2 -0 -1 -1 0 -1 0 -2 -2 -1 -1 -0
3 -5 -2 2 -2 3 -1 1 2 3 2 2 -4 2 -1 -11 -4 -7 -6 -4 1 2 -3 4 1 2 3 2 4 5 3 -0 1 -3 -5 -1 -2 0 0 -1 -1 -1 0 0
12 1 -2 -3 -6 -1 -1 3 3 4 -8 -5 -2 -2 -2 9 1 0 4 5 -4 2 -2 3 1 1 1 4 5 -1 8 8 4 2 0 7 -0 1 0 -1 0 0 -0 0
-3 0 -0 1 -2 1 4 1 -1 -1 0 2 -3 -1 -0 0 6 -2 4 -2 2 1 0 0 3 3 1 0 -0 -1 -3 2 6 5 2 -3 2 0 1 -1 -1 -0 -0 1
-2 -4 1 1 6 -3 1 -2 -2 1 -1 0 -3 -10 6 -3 0 3 -0 4 3 -4 -3 -2 1 1 0 0 3 2 1 -0 2 4 3 2 1 -1 -0 -1 -1 -1 -1 -1
-1 -2 -5 -5 -2 -2 -1 -2 -3 -1 -1 -11 0 -7 11 2 5 3 -4 -2 1 8 4 6 -3 -2 -0 0 3 2 1 1 -1 2 1 1 1 1 -1 -1 -2 -2 -1 -1
-3 -1 -1 -2 -2 -4 -1 1 -3 -2 -9 3 8 -9 15 6 -5 4 5 -2 -4 -11 -7 -4 -5 -2 1 5 9 5 9 4 3 5 -0 -1 -1 -0 -0 0 0 -0 -0 -1
-0 -3 -2 1 -1 3 1 -1 2 -0 -2 1 4 -12 16 1 -4 -9 0 0 -1 -1 18 8 5 -0 2 -2 -2 -2 -0 -1 -2 -0 1 2 2 1 1 -0 -1 -2 -1 -0
2 5 3 4 1 -2 3 -5 2 1 1 3 -0 2 -1 1 -6 -2 -6 2 0 -3 1 6 -3 7 0 0 1 1 1 1 -0 -0 -0 -0 1 0 0 0 -0 1 1 1
-0 -0 2 3 -1 -1 0 1 -5 -2 -2 -0 -2 6 -2 -2 -3 -1 -1 -2 0 1 -4 -3 -3 -0 8 6 4 1 -1 -0 1 -1 -0 0 1 0 0 0 -0 -0 -1 -1
4 5 1 2 0 7 2 2 0 3 -4 -1 -2 0 7 3 3 -1 -5 -2 -1 0 4 2 -1 0 -6 -3 -2 5 1 -2 -1 0 2 2 0 0 -0 -0 -0 -0 -0 -1
1 -1 2 4 -0 -3 -1 -1 -1 -3 2 2 1 -0 4 2 -1 2 2 -0 -2 -0 -5 -4 0 -0 -0 3 1 0 -3 -1 1 2 -1 1 2 1 0 -1 -1 0 1 -1
10 -2 -0 -0 -3 -5 -1 7 8 0 -8 -1 -7 4 8 2 4 4 -3 -4 -3 -2 -2 3 -2 -3 -2 -3 -2 -0 -4 3 0 1 1 0 1 -1 -0 1 2 1 2 1
8 1 2 3 -2 -0 -7 0 -0 -7 -14 13 5 5 9 2 3 -2 -4 -2 -2 -2 1 -1 -1 3 3 -1 -3 0 1 0 0 1 0 1 -0 -3 -2 -2 -1 -2 1 0
2 1 -5 1 -5 -0 1 -3 -4 -10 17 -32 39 -5 13 2 -7 -13 -7 -5 -5 -2 -1 -3 -5 -6 -5 -2 1 0 0 1 2 1 1 -1 -0 -1 -4 -2 -2 -1 -0 -1
1 24 5 6 -0 -0 -2 -5 -6 1 8 -2 -2 7 -11 -5 -6 -4 -5 -8 -4 -4 -0 -1 -4 -2 -3 -3 -2 -2 0 -0 1 -1 -1 -1 -2 -2 3 -3 -2 3 0 4
2 -3 4 4 5 -3 -13 10 2 -4 -1 5 -9 26 -18 3 -4 -3 -9 -5 1 5 -2 -3 -4 -3 -2 -2 -2 -3 -3 -1 -3 1 1 1 -0 0 -0 2 3 4 2 -1
-4 2 -1 -1 -2 -15 11 8 -4 -3 4 -8 -1 10 -11 2 -5 4 4 3 3 -5 -2 -1 -3 -1 1 -2 0 -2 -2 -0 1 -0 -2 -1 2 2 -4 -3 -0 0 -2 -0
22 3 -2 -4 -0 0 4 3 -3 -2 -2 -4 2 -3 -1 -2 2 8 -6 -8 -5 -2 -3 -1 1 -0 1 -0 -3 2 2 1 -1 -1 1 1 1 -3 -3 1 2 0 1 1
-9 1 -1 -1 -4 -2 6 0 -1 -0 -4 -0 -4 -2 -2 0 3 -11 4 4 -1 -1 0 1 -0 1 -6 -3 0 2 -1 2 2 3 -1 0 1 0 0 -0 0 1 0 2
25 9 0 -1 -3 -2 8 2 -7 -3 -0 -4 -1 -0 -1 -1 2 -3 -1 1 -0 0 -0 1 1 -1 -0 2 0 1 2 -0 1 -1 2 -2 -1 -2 2 0 -0 -2 -2 1
3 9 0 -2 -6 3 -6 -6 -2 -7 2 -2 -2 -2 -2 -3 -1 -2 -1 -0 -1 0 -0 1 1 1 1 1 -1 0 0 0 -3 -3 -3 0 0 2 -3 -1 2 1 1 1
-9 -8 2 -5 3 3 -1 -1 -2 -3 -0 -0 -0 1 1 -1 -1 -2 -0 1 0 -0 -0 -0 -1 -0 -1 -1 1 -0 -0 -1 -0 1 1 1 1 -0 2 2 1 1 2 3
-3 2 -3 -2 4 0 0 0 -1 -0 -1 -1 -1 -1 -1 -1 -1 -2 -2 -1 -1 -0 0 1 0 1 1 0 0 0 0 -1 -0 -1 1 1 1 1 0 0 2 0 2 1
-6 3 3 3 2 -4 -1 2 0 -0 -1 1 0 1 0 0 -0 -1 -1 -1 -1 -2 -1 -0 0 -0 -0 -1 -1 -1 1 1 -0 0 0 1 2 2 1 0 -0 0 0 1
3 6 0 5 -6 -1 -3 3 2 1 0 -0 1 2 1 0 0 -0 -0 -1 -1 -0 -0 -1 -1 -5 18 -3 0 0 0 0 -0 -1 -0 -0 0 -0 -0 -1 1 1 1 0
Height
5660 5667 5672 5679 5685 5690 5699 5705 5711 5718 5724 5727 5734 5738 5744 5748 5754 5757 5762 5768 5774 5781 5786 5794 5800 5806 5812 5814 5818 5822 5824 5826 5829 5833 5836 5839 5842 5844 5846 5848 5849 5850 5851 5851
5661 5667 5671 5676 5682 5690 5697 5703 5709 5716 5719 5722 5726 5733 5737 5742 5747 5750 5754 5759 5766 5772 5778 5784 5790 5797 5803 5806 5811 5813 5817 5818 5821 5825 5828 5831 5833 5836 5838 5839 5841 5843 5844 5844
5663 5667 5669 5675 5683 5690 5696 5701 5707 5712 5714 5718 5722 5728 5734 5738 5740 5744 5748 5752 5756 5763 5769 5775 5781 5787 5793 5797 5801 5805 5809 5813 5814 5817 5820 5823 5826 5828 5830 5832 5833 5834 5835 5836
5665 5669 5672 5676 5683 5689 5694 5698 5702 5706 5710 5713 5718 5722 5727 5730 5734 5736 5740 5743 5749 5753 5759 5766 5772 5777 5782 5787 5791 5795 5800 5804 5807 5810 5811 5815 5818 5821 5823 5824 5825 5827 5827 5828
5669 5670 5674 5678 5682 5686 5691 5695 5699 5702 5705 5708 5712 5716 5721 5723 5727 5729 5732 5735 5739 5744 5750 5757 5763 5767 5772 5777 5783 5787 5790 5794 5798 5800 5804 5807 5810 5812 5814 5816 5817 5818 5818 5819
5666 5669 5672 5676 5679 5683 5688 5691 5695 5698 5700 5703 5706 5710 5714 5718 5720 5719 5720 5726 5730 5734 5740 5746 5751 5757 5763 5769 5773 5777 5781 5784 5787 5790 5793 5796 5799 5802 5804 5805 5807 5808 5809 5809
5663 5667 5670 5673 5676 5679 5682 5686 5690 5693 5695 5698 5702 5703 5708 5713 5712 5714 5715 5717 5721 5725 5732 5736 5743 5748 5754 5759 5763 5766 5769 5773 5776 5779 5782 5785 5787 5790 5793 5795 5797 5798 5798 5799
5661 5664 5667 5670 5673 5676 5678 5682 5686 5688 5690 5693 5697 5698 5703 5706 5705 5705 5710 5711 5716 5721 5727 5731 5735 5738 5743 5747 5751 5755 5757 5761 5764 5768 5771 5774 5777 5780 5782 5784 5786 5787 5788 5788
5659 5662 5664 5667 5670 5673 5674 5676 5680 5683 5685 5688 5691 5694 5699 5701 5701 5702 5703 5705 5707 5713 5718 5720 5725 5730 5733 5737 5741 5745 5748 5751 5754 5758 5761 5763 5766 5769 5771 5772 5774 5775 5776 5776
5656 5658 5660 5662 5665 5666 5669 5673 5675 5677 5679 5682 5685 5687 5692 5695 5697 5698 5700 5702 5704 5707 5711 5714 5716 5719 5724 5728 5732 5735 5738 5741 5744 5747 5751 5753 5755 5757 5759 5760 5761 5762 5763 5764
5651 5653 5656 5658 5660 5663 5665 5667 5670 5673 5674 5676 5679 5683 5687 5690 5692 5693 5694 5697 5700 5702 5705 5708 5711 5714 5715 5718 5722 5726 5729 5731 5735 5738 5741 5743 5745 5747 5749 5749 5750 5750 5751 5752
5644 5647 5650 5653 5656 5658 5660 5663 5665 5666 5669 5671 5673 5677 5679 5684 5685 5687 5689 5690 5692 5695 5699 5702 5704 5707 5710 5711 5714 5718 5720 5721 5724 5727 5730 5732 5734 5735 5737 5738 5739 5740 5741 5741
5639 5641 5644 5646 5649 5652 5655 5659 5662 5663 5663 5666 5668 5670 5675 5677 5680 5682 5682 5685 5688 5690 5692 5694 5698 5699 5701 5703 5705 5707 5709 5711 5713 5716 5718 5720 5722 5724 5725 5726 5728 5729 5730 5731
5630 5632 5636 5640 5642 5645 5648 5651 5653 5655 5656 5658 5661 5664 5668 5670 5672 5674 5676 5678 5680 5683 5686 5689 5689 5689 5690 5692 5694 5696 5698 5700 5702 5704 5706 5708 5709 5711 5713 5715 5716 5717 5719 5720
5620 5625 5629 5631 5634 5637 5639 5643 5646 5649 5653 5652 5657 5656 5660 5662 5664 5667 5670 5672 5673 5675 5679 5681 5683 5684 5684 5684 5684 5686 5687 5689 5691 5693 5695 5697 5699 5700 5702 5703 5705 5706 5706 5708
5614 5618 5622 5623 5626 5629 5632 5635 5639 5642 5645 5646 5647 5652 5647 5650 5655 5659 5662 5664 5667 5669 5671 5673 5674 5675 5675 5675 5676 5677 5679 5680 5682 5683 5685 5686 5688 5689 5690 5692 5693 5694 5695 5696
5605 5609 5613 5616 5619 5621 5623 5629 5632 5634 5637 5638 5640 5643 5640 5643 5646 5649 5654 5657 5660 5662 5663 5664 5665 5665 5666 5667 5669 5670 5671 5672 5674 5675 5675 5676 5677 5678 5678 5679 5680 5682 5683 5684
5598 5602 5606 5609 5612 5613 5619 5622 5624 5627 5630 5631 5633 5636 5636 5638 5640 5643 5645 5648 5651 5653 5655 5657 5657 5657 5659 5659 5661 5662 5663 5664 5665 5666 5666 5666 5666 5666 5667 5667 5669 5671 5672 5673
5588 5593 5599 5602 5606 5608 5613 5617 5618 5620 5624 5623 5626 5628 5630 5631 5634 5635 5637 5639 5642 5644 5645 5647 5649 5649 5649 5649 5650 5651 5651 5652 5653 5654 5656 5655 5655 5656 5657 5658 5658 5659 5660 5661
5586 5589 5593 5596 5599 5601 5607 5610 5612 5613 5616 5617 5619 5621 5622 5624 5626 5628 5629 5633 5635 5636 5637 5639 5640 5641 5641 5641 5642 5643 5643 5643 5643 5644 5644 5646 5646 5646 5647 5649 5649 5650 5651 5651
5580 5584 5587 5590 5593 5597 5601 5604 5606 5608 5612 5611 5613 5614 5616 5617 5619 5620 5621 5624 5626 5628 5630 5632 5633 5634 5634 5635 5635 5635 5635 5635 5635 5635 5636 5636 5637 5637 5639 5640 5641 5642 5643 5644
5577 5580 5582 5584 5588 5592 5594 5598 5600 5600 5602 5604 5606 5608 5609 5611 5612 5614 5616 5617 5619 5621 5623 5623 5624 5625 5627 5628 5628 5629 5629 5629 5629 5629 5628 5629 5630 5631 5631 5632 5633 5633 5634 5635
5572 5575 5578 5581 5584 5586 5589 5592 5593 5595 5597 5599 5600 5601 5603 5605 5606 5608 5610 5611 5612 5614 5615 5616 5617 5619 5620 5621 5622 5623 5623 5622 5622 5622 5623 5623 5624 5624 5624 5625 5625 5626 5627 5628
5568 5568 5572 5575 5578 5580 5583 5585 5587 5589 5591 5593 5594 5596 5597 5599 5600 5602 5603 5605 5606 5607 5608 5609 5610 5612 5613 5615 5616 5617 5616 5616 5616 5616 5617 5617 5618 5618 5618 5618 5619 5619 5620 5621
5561 5563 5565 5569 5570 5573 5577 5580 5583 5584 5586 5588 5589 5591 5592 5594 5595 5596 5598 5599 5600 5601 5602 5603 5605 5606 5608 5609 5610 5610 5610 5610 5610 5611 5611 5611 5611 5612 5611 5612 5612 5613 5614 5614
5552 5556 5559 5561 5563 5567 5570 5574 5577 5580 5581 5583 5585 5586 5587 5589 5590 5591 5592 5593 5594 5596 5597 5597 5599 5600 5601 5603 5604 5604 5604 5604 5604 5605 5605 5605 5605 5605 5605 5606 5606 5607 5607 5607